FENGYUN 1C DEB

Satellite information

Favourite Embed

Satellite Type and Status

DEBRISIN ORBIT

Key statistics

Satellite FENGYUN 1C DEB at a glance.

Uptime

9715

Days in orbit

Revolutions

≈ 14.4

Per day

Orbit

SSO

Sun Synchronous Orbit

Inclination

98.8

Latest

Satellite identification and parameters

Extended collection of information and parameters for FENGYUN 1C DEB.

Object identification

Identified? True

Debris? True

Object name: FENGYUN 1C DEB

International designator: 1999-025DYW

Object number (NORAD): 36676

Object ID (CCSDS): 36676

Country: PEOPLES REPUBLIC OF CHINA (PRC)

Current information (Y/N): Y

RCS size: SMALL

Orbital parameters

Period: 99.779 minutes

Inclination: 98.7673 deg

SMA: 7126.109 km

Apoapsis: 815.703 km

Periapsis: 680.244 km

RAAN: 243.9112 deg

Eccentricy: 0.00950444

Argument of periapsis: 138.5457 deg

Mean anomaly: 35.246 deg

Mean motion: 14.4319192 rev/day

Mean motion (dot): 0.00002108 rev/day2

B* drag term: 0.00060751063 1/REarth

Two-line elements (TLE)

Creation date: Dec. 10, 2025, 7:58 p.m.

Reference frame: TEME

Reference center: EARTH

Epoch: Dec. 10, 2025, 11:48 a.m. UTC

TLE line 0: 0 FENGYUN 1C DEB

TLE line 1: 1 36676U 99025DYW 25344.49184580 .00002108 00000-0 60751-3 0 9993

TLE line 2: 2 36676 98.7673 243.9112 0095044 138.5457 35.2460 14.43191920650338

Live tracking on map

Real-time ground track for satellite FENGYUN 1C DEB.

In-orbit conjunctions

A list of the most updated potential collisions computed for object FENGYUN 1C DEB.

Target Orbit TCA Probability of collision Miss distance Type
THOR ABLESTAR DEB LEO 2025-11-06 06:45:33 0.0002488207 17.0 (m) DEBRIS
FENGYUN 1C DEB SSO 2025-02-16 07:02:00 0.0001814661 33.0 (m) DEBRIS
FENGYUN 1C DEB SSO 2025-01-04 15:56:54 0.0001337696 136.0 (m) DEBRIS
CZ-6A DEB LEO 2024-12-25 00:05:05 0.0002763258 546.0 (m) DEBRIS
FENGYUN 1C DEB SSO 2024-11-14 02:58:55 0.0001642891 114.0 (m) DEBRIS

Associated space launch

Chinese polar orbiting meteorological satellite

FENGYUN 1C DEB was lifted into orbit during the mission ‘Long March 4B | Feng Yun 1C’, on board a Long March 4B space rocket.

The launch took place on May 10, 1999, 1:33 a.m. from Launch Complex 7.

For more information about the launch, click the button.

Launch to space Long March 4B | Feng Yun 1C
Long March 4B | Feng Yun 1C

Agency: N/A

Status: Launch Successful

Launch date: May 10, 1999, 1:33 a.m. UTC

Rocket: Long March 4B

Launch pad: Launch Complex 7

Location: Taiyuan Satellite Launch Center, People's Republic of China

...

Latest news about this satellite

There are no fresh news available about this satellite. Check back as we update our databases every day.


Newsletter sign-up

Weekly statistics, charts and insights to help you stay on top of the space industry.